[[{"header":{"parameterUnit":"m.s-1","parameterCategory":1,"la1":30.2991,"la2":30.254,"lo1":-89.0895,"lo2":-89.0444,"dy":0.0017,"dx":0.0017,"nx":28,"ny":28,"refTime":"2024-10-06T09:00:00:Z","depth":0,"parameterNumber":2,"parameterNumberName":"U-component_of_WINDS"},"data":[0,0,0,0,0,0,0,0,0,0,0,0,0,0,0,0,0,0,0,0,0,0,0,0,0,0,0,0,0,0,0,0,0,0,0,0,0,0,0,0,0,0,0,0,0,0,0,0,0,0,0,0,0,0,0,0,0,0,-4.6484,-4.6484,0,-4.6452,-4.6452,-4.6451,-4.6335,-4.6332,-4.633,-4.6327,-4.6298,-4.63,-4.6301,0,0,0,0,0,0,0,0,0,0,0,0,0,-4.6451,-4.6452,-4.6485,-4.6484,-4.6484,-4.6452,-4.6452,-4.6451,-4.6336,-4.6332,-4.6329,-4.6326,-4.6297,-4.6299,-4.6301,0,0,0,0,0,0,0,0,0,0,0,0,0,-4.6447,-4.6452,-4.6485,-4.6422,-4.6416,-4.6452,-4.6452,-4.6451,-4.6336,-4.6332,-4.6328,-4.6325,-4.6297,-4.6299,-4.6302,-4.6397,0,0,-4.6309,-4.631,0,0,0,0,0,0,0,0,-4.6447,-4.6448,-4.6432,-4.6426,-4.642,-4.6393,-4.6429,-4.6433,-4.6337,-4.6367,-4.6327,-4.6323,-4.6333,-4.6332,-4.6335,-4.6395,-4.6394,-4.631,-4.6311,-4.6312,-4.6313,0,0,0,0,0,0,0,-4.6448,-4.6449,-4.6472,-4.6432,-4.6424,-4.6397,-4.6392,-4.6429,-4.6373,-4.6364,-4.6355,-4.6353,-4.6329,-4.6333,-4.6334,-4.6394,-4.631,-4.6312,-4.6313,-4.6314,-4.6534,-4.6538,0,0,0,0,0,0,-4.6456,-4.645,-4.6473,-4.6471,-4.6424,-4.6401,-4.6395,-4.6406,-4.6372,-4.6363,-4.6356,-4.6348,-4.6331,-4.6331,-4.6332,-4.6443,-4.6312,-4.6315,-4.6316,-4.653,-4.6535,-4.6539,0,0,0,0,0,0,-4.6456,-4.6459,-4.6474,-4.6458,-4.6458,-4.6406,-4.6419,-4.6408,-4.6411,-4.6366,-4.6356,-4.637,-4.6328,-4.6329,-4.6382,-4.6441,-4.6316,-4.6318,-4.6524,-4.6531,-4.6537,-4.6666,0,0,0,0,0,0,-4.6455,-4.646,-4.6494,-4.646,-4.6459,-4.6523,-4.6422,-4.641,-4.6415,-4.6404,-4.6377,-4.6368,-4.6325,-4.6379,-4.6385,-4.6442,-4.632,-4.6519,-4.6527,-4.6535,-4.6656,-4.6676,-4.6693,0,0,0,0,0,-4.6455,-4.6532,-4.6496,-4.65,-4.6501,-4.6527,-4.6527,-4.6474,-4.6421,-4.6456,-4.6427,-4.6369,-4.6433,-4.6385,-4.6391,-4.645,-4.6515,-4.6525,-4.6534,-4.6648,-4.6672,-4.6692,0,0,0,0,0,0,-4.6575,-4.6526,-4.6486,-4.6554,-4.6546,-4.6507,-4.6549,-4.65,-4.6507,-4.6496,-4.6431,-4.6426,-4.649,-4.6475,-4.6422,-4.6542,-4.6465,-4.6476,-4.6549,-4.6572,-4.659,-4.6593,-4.6322,0,0,0,0,0,-4.6609,-4.6633,-4.659,-4.6654,-4.6652,-4.6602,-4.6611,-4.6571,-4.656,-4.6556,-4.6531,-4.6524,-4.6542,-4.6556,-4.657,-4.6653,-4.6647,-4.6697,-4.6715,-4.673,-4.6742,-4.6787,-4.681,-4.6571,-4.6571,-4.6571,0,0,-4.6681,-4.6657,-4.6676,-4.6678,-4.6666,-4.6695,-4.66,-4.6633,-4.6654,-4.6561,-4.661,-4.6593,-4.658,-4.665,-4.6679,-4.6639,-4.6806,-4.6743,-4.6755,-4.6758,-4.68,-4.6822,-4.6842,-4.6578,-4.6577,-4.6576,0,0,-4.6826,-4.6809,-4.6862,-4.6853,-4.6837,-4.6804,-4.6817,-4.6786,-4.6771,-4.6819,-4.6751,-4.6776,-4.6808,-4.6803,-4.6805,-4.6951,-4.6899,-4.6957,-4.7054,-4.7099,-4.7118,-4.7134,-4.7189,-4.7209,-4.6968,-4.6969,-4.6969,0,-4.6917,-4.6955,-4.6896,-4.6934,-4.6938,-4.6856,-4.691,-4.6905,-4.6895,-4.69,-4.6856,-4.6897,-4.6882,-4.6951,-4.6987,-4.699,-4.7005,-4.696,-4.712,-4.7136,-4.715,-4.7202,-4.7222,-4.6976,-4.6975,-4.6974,-4.6974,0,-4.707,-4.7098,-4.7143,-4.7135,-4.7144,-4.7191,-4.714,-4.7157,-4.7117,-4.7089,-4.7141,-4.7121,-4.7131,-4.7144,-4.7105,-4.7208,-4.7185,-4.7131,-4.7052,-4.7181,-4.7229,-4.7248,-4.6986,-4.6984,-4.6982,-4.698,0,0,-4.7289,-4.7249,-4.7267,-4.7264,-4.7241,-4.7262,-4.7306,-4.7315,-4.7332,-4.7329,-4.7366,-4.7396,-4.7347,-4.735,-4.7309,-4.7349,-4.747,-4.7291,-4.729,-4.7327,-4.7585,-4.7627,-4.7651,-4.7435,-4.7438,-4.7441,-4.7587,0,-4.7428,-4.75,-4.7449,-4.753,-4.7557,-4.748,-4.7519,-4.7511,-4.7486,-4.7507,-4.748,-4.7504,-4.7436,-4.7438,-4.7473,-4.7448,-4.7521,-4.7436,-4.7471,-4.7473,-4.7478,-4.7675,-4.7719,-4.7858,-4.7605,-4.7608,-4.761,0,-4.76,-4.7605,-4.7689,-4.7663,-4.7672,-4.7708,-4.7714,-4.7734,-4.7724,-4.7704,-4.7708,-4.7658,-4.7702,-4.7624,-4.7685,-4.7628,-4.764,-4.763,-4.7634,-4.7636,-4.7551,-4.7685,-4.79,-4.7922,-4.7638,-4.7636,-4.7634,0,-4.7755,-4.7782,-4.7836,-4.7835,-4.7806,-4.7833,-4.7823,-4.7808,-4.7818,-4.7824,-4.783,-4.7842,-4.7848,-4.7859,-4.7815,-4.7762,-4.7883,-4.7801,-4.787,-4.7872,-4.79,-4.7899,-4.8122,-4.7905,-4.7904,-4.7904,-4.7904,0,-4.7917,-4.7972,-4.7905,-4.7939,-4.7999,-4.7941,-4.8003,-4.7984,-4.7973,-4.8004,-4.7938,-4.7968,-4.7907,-4.7932,-4.7898,-4.7955,-4.7958,-4.7945,-4.7936,-4.7952,-4.7954,-4.796,-4.795,-4.7909,-4.7908,-4.7907,-4.7906,0,-4.81,-4.8057,-4.8112,-4.808,-4.8073,-4.812,-4.8093,-4.8124,-4.8096,-4.8136,-4.8142,-4.8098,-4.8124,-4.8081,-4.8102,-4.808,-4.816,-4.8135,-4.8164,-4.8157,-4.8229,-4.8224,-4.8465,-4.8495,-4.8257,-4.8259,-4.8261,0,-4.8207,-4.8247,-4.822,-4.8236,-4.8229,-4.8254,-4.8264,-4.8209,-4.8223,-4.8216,-4.8249,-4.8269,-4.8283,-4.8329,-4.83,-4.8317,-4.8293,-4.8376,-4.8295,-4.8311,-4.8297,-4.8296,-4.8301,-4.8394,-4.8397,-4.8399,-4.8401,0,-4.8402,-4.838,-4.8396,-4.8406,-4.842,-4.8425,-4.8426,-4.8443,-4.8385,-4.8404,-4.843,-4.844,-4.8462,-4.8485,-4.8495,-4.8485,-4.8435,-4.8427,-4.8444,-4.8462,-4.8478,-4.8473,-4.8211,-4.8421,-4.8419,-4.8418,-4.8417,-4.8416,-4.8551,-4.8585,-4.8572,-4.8593,-4.8588,-4.8591,-4.862,-4.8596,-4.8616,-4.8629,-4.8596,-4.863,-4.8622,-4.863,-4.8627,-4.8654,-4.8618,-4.8642,-4.8649,-4.8656,-4.8669,-4.8472,-4.8656,-4.8655,-4.8654,-4.8654,-4.8653,0,-4.8745,-4.8734,-4.8754,-4.8757,-4.8775,-4.8725,-4.8724,-4.8742,-4.8773,-4.8769,-4.8784,-4.8816,-4.8837,-4.8811,-4.8829,-4.8857,-4.8835,-4.8864,-4.8862,-4.8861,-4.8699,-4.8683,-4.8882,-4.8881,-4.8881,-4.8881,-4.8881,-4.8881,-4.8848,-4.8904,-4.888,-4.8933,-4.8921,-4.8954,-4.8958,-4.8962,-4.8958,-4.8996,-4.9014,-4.8996,-4.8984,-4.9001,-4.902,-4.9012,-4.9023,-4.9061,-4.9045,-4.8895,-4.8872,-4.8851,-4.8836,-4.9063,-4.9063,-4.9205,-4.9207,-4.9208]},{"header":{"parameterUnit":"m.s-1","parameterCategory":1,"la1":30.2991,"la2":30.254,"lo1":-89.0895,"lo2":-89.0444,"dy":0.0017,"dx":0.0017,"nx":28,"ny":28,"refTime":"2024-10-06T09:00:00:Z","depth":0,"parameterNumber":3,"parameterNumberName":"V-component_of_WINDS"},"data":[0,0,0,0,0,0,0,0,0,0,0,0,0,0,0,0,0,0,0,0,0,0,0,0,0,0,0,0,0,0,0,0,0,0,0,0,0,0,0,0,0,0,0,0,0,0,0,0,0,0,0,0,0,0,0,0,0,0,-2.4745,-2.4744,0,-2.47,-2.47,-2.4699,-2.4639,-2.4638,-2.4637,-2.4636,-2.4589,-2.4589,-2.4589,0,0,0,0,0,0,0,0,0,0,0,0,0,-2.4777,-2.4777,-2.4745,-2.4744,-2.4744,-2.47,-2.4699,-2.4699,-2.4639,-2.4638,-2.4637,-2.4636,-2.459,-2.4589,-2.4589,0,0,0,0,0,0,0,0,0,0,0,0,0,-2.4751,-2.4777,-2.4745,-2.4709,-2.4705,-2.47,-2.4699,-2.4699,-2.464,-2.4638,-2.4637,-2.4635,-2.459,-2.4589,-2.4589,-2.4616,0,0,-2.4587,-2.4587,0,0,0,0,0,0,0,0,-2.4753,-2.475,-2.4715,-2.4711,-2.4707,-2.4674,-2.4694,-2.4671,-2.464,-2.4664,-2.4636,-2.4634,-2.4619,-2.4616,-2.461,-2.4613,-2.4611,-2.4587,-2.4587,-2.4587,-2.4587,0,0,0,0,0,0,0,-2.4754,-2.4751,-2.4727,-2.4714,-2.4709,-2.4694,-2.4689,-2.4689,-2.465,-2.4662,-2.4658,-2.4653,-2.4616,-2.4611,-2.4609,-2.4611,-2.4587,-2.4587,-2.4587,-2.4586,-2.4633,-2.4635,0,0,0,0,0,0,-2.4762,-2.4753,-2.4728,-2.4726,-2.4727,-2.4695,-2.4689,-2.4686,-2.465,-2.4643,-2.4655,-2.4651,-2.4613,-2.461,-2.4607,-2.4637,-2.4587,-2.4586,-2.4586,-2.4632,-2.4634,-2.4635,0,0,0,0,0,0,-2.4763,-2.476,-2.473,-2.4738,-2.4733,-2.4696,-2.4693,-2.4686,-2.4681,-2.4644,-2.4637,-2.4657,-2.4611,-2.4608,-2.4614,-2.4634,-2.4586,-2.4586,-2.463,-2.4633,-2.4635,-2.4697,0,0,0,0,0,0,-2.4764,-2.4761,-2.4771,-2.4739,-2.4733,-2.4739,-2.4694,-2.4686,-2.468,-2.4674,-2.4644,-2.4638,-2.461,-2.4615,-2.4614,-2.4633,-2.4585,-2.4628,-2.4631,-2.4634,-2.4693,-2.4701,-2.4708,0,0,0,0,0,-2.4765,-2.479,-2.4772,-2.4769,-2.4745,-2.474,-2.4736,-2.4704,-2.4682,-2.4692,-2.4668,-2.4639,-2.4632,-2.4616,-2.4614,-2.4634,-2.4627,-2.463,-2.4634,-2.4689,-2.4699,-2.4707,0,0,0,0,0,0,-2.4825,-2.4785,-2.4765,-2.478,-2.4764,-2.473,-2.4741,-2.4715,-2.4705,-2.47,-2.466,-2.4654,-2.4665,-2.4649,-2.4633,-2.4658,-2.4625,-2.4628,-2.4668,-2.4677,-2.4684,-2.4689,-2.4585,0,0,0,0,0,-2.484,-2.4839,-2.4804,-2.4821,-2.4814,-2.4779,-2.4776,-2.4752,-2.4734,-2.4726,-2.4704,-2.4687,-2.4681,-2.4678,-2.467,-2.4689,-2.4682,-2.4701,-2.4709,-2.4715,-2.4719,-2.4729,-2.4737,-2.4647,-2.4647,-2.4647,0,0,-2.4871,-2.4849,-2.4851,-2.4832,-2.4817,-2.4818,-2.4774,-2.4776,-2.4776,-2.4726,-2.4732,-2.4714,-2.4692,-2.4706,-2.471,-2.4693,-2.4742,-2.472,-2.4725,-2.4725,-2.4733,-2.4742,-2.475,-2.4649,-2.4649,-2.4648,0,0,-2.4928,-2.4911,-2.4923,-2.4909,-2.4887,-2.4863,-2.4866,-2.4836,-2.4823,-2.4827,-2.4791,-2.4789,-2.478,-2.4766,-2.4758,-2.4809,-2.4782,-2.4807,-2.4847,-2.4857,-2.4865,-2.4871,-2.489,-2.4897,-2.4811,-2.4811,-2.4811,0,-2.4969,-2.4968,-2.4933,-2.4937,-2.493,-2.4886,-2.4898,-2.4886,-2.4862,-2.4858,-2.4839,-2.4826,-2.4808,-2.4818,-2.4831,-2.4825,-2.4828,-2.4811,-2.4866,-2.4872,-2.4877,-2.4895,-2.4903,-2.4814,-2.4814,-2.4814,-2.4813,0,-2.5021,-2.5021,-2.5033,-2.5012,-2.5006,-2.5015,-2.498,-2.4978,-2.4955,-2.4933,-2.4938,-2.4915,-2.4903,-2.4903,-2.488,-2.4909,-2.4899,-2.4874,-2.4841,-2.489,-2.4906,-2.4913,-2.4819,-2.4818,-2.4817,-2.4816,0,0,-2.5116,-2.5074,-2.508,-2.507,-2.5042,-2.5041,-2.5047,-2.5035,-2.5034,-2.5019,-2.5024,-2.5016,-2.4992,-2.4983,-2.4958,-2.4966,-2.501,-2.4939,-2.4938,-2.4955,-2.5042,-2.5063,-2.5071,-2.4991,-2.4992,-2.4993,-2.5044,0,-2.5168,-2.5177,-2.5145,-2.5162,-2.5162,-2.5119,-2.5125,-2.5108,-2.5088,-2.5084,-2.5061,-2.5058,-2.5026,-2.502,-2.5027,-2.5003,-2.5027,-2.4999,-2.4995,-2.4995,-2.5004,-2.508,-2.5101,-2.5151,-2.505,-2.5051,-2.5052,0,-2.5231,-2.522,-2.5238,-2.5209,-2.5207,-2.5213,-2.52,-2.5196,-2.5176,-2.5161,-2.5151,-2.5121,-2.5125,-2.5092,-2.5097,-2.5078,-2.5074,-2.5063,-2.5064,-2.5064,-2.5028,-2.5083,-2.5166,-2.5175,-2.5061,-2.5061,-2.506,0,-2.5301,-2.5289,-2.5299,-2.5291,-2.5257,-2.5262,-2.5248,-2.5227,-2.5222,-2.5209,-2.5206,-2.5194,-2.5188,-2.5179,-2.5147,-2.5126,-2.5156,-2.512,-2.5144,-2.5145,-2.5153,-2.5154,-2.5239,-2.5149,-2.5148,-2.5148,-2.5148,0,-2.5364,-2.5377,-2.5329,-2.5336,-2.5348,-2.531,-2.5324,-2.5306,-2.5287,-2.5288,-2.525,-2.5252,-2.5209,-2.5206,-2.5181,-2.5189,-2.5186,-2.5174,-2.5167,-2.5178,-2.518,-2.5177,-2.5173,-2.515,-2.515,-2.5149,-2.5149,0,-2.5444,-2.5413,-2.542,-2.5388,-2.538,-2.5391,-2.5362,-2.5366,-2.5343,-2.5346,-2.5344,-2.5308,-2.5303,-2.527,-2.5256,-2.5239,-2.5257,-2.5243,-2.5265,-2.5261,-2.5287,-2.5285,-2.5374,-2.5385,-2.5286,-2.5287,-2.5288,0,-2.5487,-2.5496,-2.5465,-2.5463,-2.5451,-2.5449,-2.5443,-2.5406,-2.5402,-2.5379,-2.5386,-2.5378,-2.5369,-2.5363,-2.5335,-2.5325,-2.5311,-2.5343,-2.5309,-2.532,-2.5313,-2.5314,-2.5315,-2.5351,-2.5352,-2.5353,-2.5354,0,-2.5568,-2.5552,-2.5546,-2.5535,-2.553,-2.5519,-2.5506,-2.5506,-2.5465,-2.5462,-2.5457,-2.545,-2.5437,-2.5429,-2.5414,-2.5399,-2.537,-2.5364,-2.5369,-2.5382,-2.5394,-2.5389,-2.5286,-2.5363,-2.5362,-2.5361,-2.5361,-2.536,-2.5632,-2.5638,-2.5617,-2.5612,-2.5598,-2.5586,-2.5589,-2.5566,-2.5561,-2.5548,-2.5525,-2.5523,-2.5502,-2.5479,-2.5466,-2.5464,-2.5447,-2.5454,-2.5456,-2.5459,-2.5465,-2.5394,-2.5461,-2.546,-2.546,-2.546,-2.5459,0,-2.5712,-2.5696,-2.5691,-2.5674,-2.567,-2.5643,-2.5626,-2.5625,-2.5624,-2.5606,-2.5599,-2.5593,-2.5585,-2.5556,-2.5546,-2.5549,-2.5535,-2.5548,-2.5548,-2.5545,-2.548,-2.5478,-2.5559,-2.5559,-2.5559,-2.5559,-2.5559,-2.5559,-2.5753,-2.5763,-2.5744,-2.5746,-2.573,-2.5728,-2.5721,-2.571,-2.5696,-2.5691,-2.5685,-2.5666,-2.5645,-2.5632,-2.5624,-2.5615,-2.5614,-2.5631,-2.5619,-2.5559,-2.5549,-2.554,-2.5538,-2.5631,-2.5631,-2.5684,-2.5684,-2.5685]}]]